Time,TemperatureF,DewpointF,PressureIn,WindDirection,WindDirectionDegrees,WindSpeedMPH,WindSpeedGustMPH,Humidity,HourlyPrecipIn,Conditions,Clouds,dailyrainin,SolarRadiationWatts/m^2,SoftwareType,DateUTC
2013-08-12 00:04:00,77.2,74.0,30.03,SSE,168,0.0,0.0,90,0.00,,,0.00,0.00,VWS V14.01,2013-08-12 05:04:00,
2013-08-12 00:09:00,77.1,73.9,30.03,SSE,168,0.0,0.0,90,0.00,,,0.00,0.00,VWS V14.01,2013-08-12 05:09:00,
2013-08-12 00:14:00,77.1,73.9,30.02,SSE,168,0.0,1.0,90,0.00,,,0.00,0.00,VWS V14.01,2013-08-12 05:14:00,
2013-08-12 00:19:00,77.0,73.8,30.02,SSE,168,0.0,1.0,90,0.00,,,0.00,0.00,VWS V14.01,2013-08-12 05:19:00,
2013-08-12 00:24:00,77.0,73.8,30.02,SSE,168,0.0,1.0,90,0.00,,,0.00,0.00,VWS V14.01,2013-08-12 05:24:00,
2013-08-12 00:29:00,76.9,73.8,30.02,SSE,168,0.0,1.0,90,0.00,,,0.00,0.00,VWS V14.01,2013-08-12 05:29:00,
2013-08-12 00:34:00,76.9,73.8,30.02,SSE,168,1.0,3.0,90,0.00,,,0.00,0.00,VWS V14.01,2013-08-12 05:34:00,
2013-08-12 00:39:00,76.9,73.8,30.02,SSE,168,0.0,3.0,90,0.00,,,0.00,0.00,VWS V14.01,2013-08-12 05:39:00,
2013-08-12 00:44:00,76.9,73.8,30.01,SSE,168,1.0,4.0,90,0.00,,,0.00,0.00,VWS V14.01,2013-08-12 05:44:00,
2013-08-12 00:49:00,77.0,73.8,30.02,SSE,168,0.0,4.0,90,0.00,,,0.00,0.00,VWS V14.01,2013-08-12 05:49:00,
2013-08-12 00:54:00,77.0,73.8,30.01,South,173,3.0,4.0,90,0.00,,,0.00,0.00,VWS V14.01,2013-08-12 05:54:00,
2013-08-12 00:59:00,77.1,73.9,30.02,South,176,2.0,4.0,90,0.00,,,0.00,0.00,VWS V14.01,2013-08-12 05:59:00,
2013-08-12 01:04:00,77.1,73.9,30.02,South,184,0.0,4.0,90,0.00,,,0.00,0.00,VWS V14.01,2013-08-12 06:04:00,
2013-08-12 01:09:00,77.2,73.7,30.02,SSW,198,5.0,6.0,89,0.00,,,0.00,0.00,VWS V14.01,2013-08-12 06:09:00,
2013-08-12 01:14:00,77.3,73.8,30.02,South,183,0.0,5.0,89,0.00,,,0.00,0.00,VWS V14.01,2013-08-12 06:14:00,
2013-08-12 01:19:00,77.3,73.8,30.02,SSE,150,0.0,7.0,89,0.00,,,0.00,0.00,VWS V14.01,2013-08-12 06:19:00,
2013-08-12 01:24:00,77.3,73.8,30.01,South,186,0.0,4.0,89,0.00,,,0.00,0.00,VWS V14.01,2013-08-12 06:24:00,
2013-08-12 01:29:00,77.3,73.8,30.02,South,184,0.0,4.0,89,0.00,,,0.00,0.00,VWS V14.01,2013-08-12 06:29:00,
2013-08-12 01:34:00,77.2,73.7,30.02,South,184,0.0,1.0,89,0.00,,,0.00,0.00,VWS V14.01,2013-08-12 06:34:00,
2013-08-12 01:39:00,77.2,73.7,30.02,South,185,0.0,4.0,89,0.00,,,0.00,0.00,VWS V14.01,2013-08-12 06:39:00,
2013-08-12 01:44:00,77.1,73.6,30.01,South,188,2.0,3.0,89,0.00,,,0.00,0.00,VWS V14.01,2013-08-12 06:44:00,
2013-08-12 01:49:00,77.0,73.5,30.02,South,182,0.0,3.0,89,0.00,,,0.00,0.00,VWS V14.01,2013-08-12 06:49:00,
2013-08-12 01:54:00,76.9,73.8,30.02,South,183,0.0,2.0,90,0.00,,,0.00,0.00,VWS V14.01,2013-08-12 06:54:00,
2013-08-12 01:59:00,76.9,73.8,30.02,SSW,194,0.0,5.0,90,0.00,,,0.00,0.00,VWS V14.01,2013-08-12 06:59:00,
2013-08-12 02:04:00,76.9,73.8,30.02,SSW,192,0.0,3.0,90,0.00,,,0.00,0.00,VWS V14.01,2013-08-12 07:04:00,
2013-08-12 02:09:00,76.9,73.8,30.01,SSW,195,0.0,4.0,90,0.00,,,0.00,0.00,VWS V14.01,2013-08-12 07:09:00,
2013-08-12 02:14:00,76.8,73.7,30.01,SSW,210,0.0,5.0,90,0.00,,,0.00,0.00,VWS V14.01,2013-08-12 07:14:00,
2013-08-12 02:19:00,76.8,73.7,30.02,SSW,209,0.0,5.0,90,0.00,,,0.00,0.00,VWS V14.01,2013-08-12 07:19:00,
2013-08-12 02:24:00,76.7,73.6,30.01,SSW,199,0.0,6.0,90,0.00,,,0.00,0.00,VWS V14.01,2013-08-12 07:24:00,
2013-08-12 02:29:00,76.7,73.6,30.01,SSW,200,0.0,6.0,90,0.00,,,0.00,0.00,VWS V14.01,2013-08-12 07:29:00,
2013-08-12 02:34:00,76.7,73.6,30.01,SSW,209,1.0,5.0,90,0.00,,,0.00,0.00,VWS V14.01,2013-08-12 07:34:00,
2013-08-12 02:39:00,76.6,73.4,30.01,SSW,209,6.0,7.0,90,0.00,,,0.00,0.00,VWS V14.01,2013-08-12 07:39:00,
2013-08-12 02:44:00,76.6,73.4,30.01,SSW,200,0.0,5.0,90,0.00,,,0.00,0.00,VWS V14.01,2013-08-12 07:44:00,
2013-08-12 02:49:00,76.6,73.4,30.01,SSW,206,0.0,5.0,90,0.00,,,0.00,0.00,VWS V14.01,2013-08-12 07:49:00,
2013-08-12 02:54:00,76.6,73.4,30.01,South,171,0.0,5.0,90,0.00,,,0.00,0.00,VWS V14.01,2013-08-12 07:54:00,
2013-08-12 02:59:00,76.6,73.4,30.01,South,172,0.0,5.0,90,0.00,,,0.00,0.00,VWS V14.01,2013-08-12 07:59:00,
2013-08-12 03:04:00,76.5,73.7,30.01,SSW,194,1.0,5.0,91,0.00,,,0.00,0.00,VWS V14.01,2013-08-12 08:04:00,
2013-08-12 03:09:00,76.4,73.6,30.01,SSW,192,2.0,5.0,91,0.00,,,0.00,0.00,VWS V14.01,2013-08-12 08:09:00,
2013-08-12 03:14:00,76.4,73.6,30.01,SSW,193,1.0,4.0,91,0.00,,,0.00,0.00,VWS V14.01,2013-08-12 08:14:00,
2013-08-12 03:19:00,76.3,73.5,30.01,SSW,193,0.0,4.0,91,0.00,,,0.00,0.00,VWS V14.01,2013-08-12 08:19:00,
2013-08-12 03:24:00,76.2,73.4,30.01,SSW,192,0.0,1.0,91,0.00,,,0.00,0.00,VWS V14.01,2013-08-12 08:24:00,
2013-08-12 03:29:00,76.1,73.3,30.01,SSW,193,0.0,2.0,91,0.00,,,0.00,0.00,VWS V14.01,2013-08-12 08:29:00,
2013-08-12 03:34:00,76.0,73.2,30.00,SSW,193,0.0,1.0,91,0.00,,,0.00,0.00,VWS V14.01,2013-08-12 08:34:00,
2013-08-12 03:39:00,75.9,73.1,30.00,SSW,192,0.0,3.0,91,0.00,,,0.00,0.00,VWS V14.01,2013-08-12 08:39:00,
2013-08-12 03:44:00,75.8,73.0,30.00,SSW,192,0.0,3.0,91,0.00,,,0.00,0.00,VWS V14.01,2013-08-12 08:44:00,
2013-08-12 03:49:00,75.8,73.3,30.00,SSW,195,1.0,4.0,92,0.00,,,0.00,0.00,VWS V14.01,2013-08-12 08:49:00,
2013-08-12 03:54:00,75.8,73.3,30.00,South,184,1.0,4.0,92,0.00,,,0.00,0.00,VWS V14.01,2013-08-12 08:54:00,
2013-08-12 03:59:00,75.7,73.2,30.00,SSW,194,3.0,5.0,92,0.00,,,0.00,0.00,VWS V14.01,2013-08-12 08:59:00,
2013-08-12 04:04:00,75.7,73.2,30.00,SSW,213,0.0,5.0,92,0.00,,,0.00,0.00,VWS V14.01,2013-08-12 09:04:00,
2013-08-12 04:09:00,75.7,73.2,30.00,SW,228,1.0,5.0,92,0.00,,,0.00,0.00,VWS V14.01,2013-08-12 09:09:00,
2013-08-12 04:14:00,75.7,73.2,30.00,SSW,192,0.0,5.0,92,0.00,,,0.00,0.00,VWS V14.01,2013-08-12 09:14:00,
2013-08-12 04:19:00,75.7,73.2,30.00,SSW,198,0.0,5.0,92,0.00,,,0.00,0.00,VWS V14.01,2013-08-12 09:19:00,
2013-08-12 04:24:00,75.7,73.2,30.00,South,190,1.0,5.0,92,0.00,,,0.00,0.00,VWS V14.01,2013-08-12 09:24:00,
2013-08-12 04:29:00,75.7,73.2,30.00,SSW,198,2.0,7.0,92,0.00,,,0.00,0.00,VWS V14.01,2013-08-12 09:29:00,
2013-08-12 04:34:00,75.7,73.2,30.00,SSW,196,1.0,5.0,92,0.00,,,0.00,0.00,VWS V14.01,2013-08-12 09:34:00,
2013-08-12 04:39:00,75.7,73.2,30.00,SSW,195,0.0,5.0,92,0.00,,,0.00,0.00,VWS V14.01,2013-08-12 09:39:00,
2013-08-12 04:44:00,75.7,73.2,30.00,SSW,195,0.0,4.0,92,0.00,,,0.00,0.00,VWS V14.01,2013-08-12 09:44:00,
2013-08-12 04:49:00,75.7,73.2,30.00,SSW,202,0.0,5.0,92,0.00,,,0.00,0.00,VWS V14.01,2013-08-12 09:49:00,
2013-08-12 04:54:00,75.7,73.2,30.00,South,183,0.0,4.0,92,0.00,,,0.00,0.00,VWS V14.01,2013-08-12 09:54:00,
2013-08-12 04:59:00,75.8,73.3,30.00,SSW,208,0.0,5.0,92,0.00,,,0.00,0.00,VWS V14.01,2013-08-12 09:59:00,
2013-08-12 05:04:00,75.8,73.3,30.00,SSW,213,0.0,3.0,92,0.00,,,0.00,0.00,VWS V14.01,2013-08-12 10:04:00,
2013-08-12 05:09:00,75.8,73.3,30.00,SSW,194,4.0,5.0,92,0.00,,,0.00,0.00,VWS V14.01,2013-08-12 10:09:00,
2013-08-12 05:14:00,75.8,73.3,30.00,South,183,3.0,4.0,92,0.00,,,0.00,0.00,VWS V14.01,2013-08-12 10:14:00,
2013-08-12 05:19:00,75.7,73.2,30.00,WSW,244,0.0,6.0,92,0.00,,,0.00,0.00,VWS V14.01,2013-08-12 10:19:00,
2013-08-12 05:24:00,75.7,73.2,30.00,SSW,200,0.0,4.0,92,0.00,,,0.00,0.00,VWS V14.01,2013-08-12 10:24:00,
2013-08-12 05:29:00,75.7,73.2,30.00,SW,215,2.0,4.0,92,0.00,,,0.00,0.00,VWS V14.01,2013-08-12 10:29:00,
2013-08-12 05:34:00,75.6,73.1,30.00,SW,221,0.0,3.0,92,0.00,,,0.00,0.00,VWS V14.01,2013-08-12 10:34:00,
2013-08-12 05:39:00,75.6,73.1,30.00,SSW,206,0.0,5.0,92,0.00,,,0.00,0.00,VWS V14.01,2013-08-12 10:39:00,
2013-08-12 05:44:00,75.5,73.0,30.00,SW,226,4.0,5.0,92,0.00,,,0.00,0.00,VWS V14.01,2013-08-12 10:44:00,
2013-08-12 05:49:00,75.5,73.0,30.00,WSW,240,0.0,5.0,92,0.00,,,0.00,0.00,VWS V14.01,2013-08-12 10:49:00,
2013-08-12 05:54:00,75.4,72.9,30.00,WSW,240,1.0,7.0,92,0.00,,,0.00,0.00,VWS V14.01,2013-08-12 10:54:00,
2013-08-12 05:59:00,75.4,72.9,30.00,SSW,210,0.0,7.0,92,0.00,,,0.00,0.00,VWS V14.01,2013-08-12 10:59:00,
2013-08-12 06:04:00,75.3,72.8,30.00,SSW,198,0.0,4.0,92,0.00,,,0.00,0.00,VWS V14.01,2013-08-12 11:04:00,
2013-08-12 06:09:00,75.3,72.8,30.00,SW,228,0.0,4.0,92,0.00,,,0.00,0.00,VWS V14.01,2013-08-12 11:09:00,
2013-08-12 06:14:00,75.2,73.0,30.00,SSW,199,0.0,3.0,93,0.00,,,0.00,0.00,VWS V14.01,2013-08-12 11:14:00,
2013-08-12 06:19:00,75.2,73.0,30.01,SSW,199,0.0,3.0,93,0.00,,,0.00,0.00,VWS V14.01,2013-08-12 11:19:00,
2013-08-12 06:24:00,75.2,73.0,30.01,SSW,200,0.0,3.0,93,0.00,,,0.00,5.00,VWS V14.01,2013-08-12 11:24:00,
2013-08-12 06:29:00,75.2,73.0,30.01,SSW,198,0.0,5.0,93,0.00,,,0.00,7.00,VWS V14.01,2013-08-12 11:29:00,
2013-08-12 06:34:00,75.2,73.0,30.01,SSW,198,0.0,3.0,93,0.00,,,0.00,9.00,VWS V14.01,2013-08-12 11:34:00,
2013-08-12 06:39:00,75.2,73.0,30.01,SSW,198,0.0,3.0,93,0.00,,,0.00,12.00,VWS V14.01,2013-08-12 11:39:00,
2013-08-12 06:44:00,75.2,73.0,30.01,SSW,198,0.0,3.0,93,0.00,,,0.00,21.00,VWS V14.01,2013-08-12 11:44:00,
2013-08-12 06:49:00,75.2,73.0,30.01,SSW,208,0.0,4.0,93,0.00,,,0.00,39.00,VWS V14.01,2013-08-12 11:49:00,
2013-08-12 06:54:00,75.3,73.1,30.01,SSW,205,0.0,5.0,93,0.00,,,0.00,49.00,VWS V14.01,2013-08-12 11:54:00,
2013-08-12 06:59:00,75.4,73.2,30.01,SSW,202,0.0,5.0,93,0.00,,,0.00,60.00,VWS V14.01,2013-08-12 11:59:00,
2013-08-12 07:04:00,75.6,73.4,30.02,SSW,207,1.0,4.0,93,0.00,,,0.00,70.00,VWS V14.01,2013-08-12 12:04:00,
2013-08-12 07:09:00,75.8,73.6,30.01,SSW,209,0.0,4.0,93,0.00,,,0.00,84.00,VWS V14.01,2013-08-12 12:09:00,
2013-08-12 07:14:00,76.0,73.8,30.01,SSW,209,1.0,3.0,93,0.00,,,0.00,104.00,VWS V14.01,2013-08-12 12:14:00,
2013-08-12 07:19:00,76.1,73.9,30.01,SSW,213,0.0,4.0,93,0.00,,,0.00,123.00,VWS V14.01,2013-08-12 12:19:00,
2013-08-12 07:24:00,76.3,73.8,30.01,SW,217,2.0,5.0,92,0.00,,,0.00,142.00,VWS V14.01,2013-08-12 12:24:00,
2013-08-12 07:29:00,76.5,74.0,30.01,SW,217,0.0,5.0,92,0.00,,,0.00,155.00,VWS V14.01,2013-08-12 12:29:00,
2013-08-12 07:34:00,76.8,74.3,30.01,WSW,239,0.0,5.0,92,0.00,,,0.00,116.00,VWS V14.01,2013-08-12 12:34:00,
2013-08-12 07:39:00,77.1,74.6,30.01,WSW,253,0.0,5.0,92,0.00,,,0.00,163.00,VWS V14.01,2013-08-12 12:39:00,
2013-08-12 07:44:00,77.5,74.7,30.00,SW,223,0.0,4.0,91,0.00,,,0.00,209.00,VWS V14.01,2013-08-12 12:44:00,
2013-08-12 07:49:00,77.9,75.1,30.01,SW,223,0.0,5.0,91,0.00,,,0.00,230.00,VWS V14.01,2013-08-12 12:49:00,
2013-08-12 07:54:00,78.2,75.0,30.01,SW,221,0.0,7.0,90,0.00,,,0.00,246.00,VWS V14.01,2013-08-12 12:54:00,
2013-08-12 07:59:00,78.5,75.0,30.01,SSW,205,0.0,7.0,89,0.00,,,0.00,265.00,VWS V14.01,2013-08-12 12:59:00,
2013-08-12 08:04:00,78.8,74.9,30.01,SW,216,1.0,7.0,88,0.00,,,0.00,278.00,VWS V14.01,2013-08-12 13:04:00,
2013-08-12 08:09:00,79.4,75.5,30.01,WSW,246,0.0,7.0,88,0.00,,,0.00,295.00,VWS V14.01,2013-08-12 13:09:00,
2013-08-12 08:14:00,80.0,75.4,30.01,WSW,255,0.0,4.0,86,0.00,,,0.00,313.00,VWS V14.01,2013-08-12 13:14:00,
2013-08-12 08:19:00,80.1,75.5,30.01,SW,232,0.0,5.0,86,0.00,,,0.00,332.00,VWS V14.01,2013-08-12 13:19:00,
2013-08-12 08:24:00,80.5,75.6,30.01,SW,236,2.0,7.0,85,0.00,,,0.00,345.00,VWS V14.01,2013-08-12 13:24:00,
2013-08-12 08:29:00,81.0,76.1,30.01,WSW,242,2.0,7.0,85,0.00,,,0.00,373.00,VWS V14.01,2013-08-12 13:29:00,
2013-08-12 08:34:00,81.3,76.0,30.01,SSW,207,0.0,5.0,84,0.00,,,0.00,353.00,VWS V14.01,2013-08-12 13:34:00,
2013-08-12 08:39:00,81.6,76.3,30.01,SW,236,0.0,6.0,84,0.00,,,0.00,404.00,VWS V14.01,2013-08-12 13:39:00,
2013-08-12 08:44:00,82.2,76.5,30.02,WSW,246,0.0,3.0,83,0.00,,,0.00,380.00,VWS V14.01,2013-08-12 13:44:00,
2013-08-12 08:49:00,82.8,76.8,30.02,WSW,252,0.0,5.0,82,0.00,,,0.00,427.00,VWS V14.01,2013-08-12 13:49:00,
2013-08-12 08:54:00,83.2,76.8,30.02,West,273,5.0,6.0,81,0.00,,,0.00,441.00,VWS V14.01,2013-08-12 13:54:00,
2013-08-12 08:59:00,83.7,76.9,30.02,SSW,209,0.0,6.0,80,0.00,,,0.00,390.00,VWS V14.01,2013-08-12 13:59:00,
2013-08-12 09:04:00,84.0,77.2,30.02,West,269,2.0,7.0,80,0.00,,,0.00,476.00,VWS V14.01,2013-08-12 14:04:00,
2013-08-12 09:09:00,84.2,76.6,30.02,WSW,249,5.0,7.0,78,0.00,,,0.00,512.00,VWS V14.01,2013-08-12 14:09:00,
2013-08-12 09:14:00,83.9,76.7,30.02,WSW,249,5.0,8.0,79,0.00,,,0.00,536.00,VWS V14.01,2013-08-12 14:14:00,
2013-08-12 09:19:00,84.3,77.1,30.02,WSW,252,0.0,8.0,79,0.00,,,0.00,515.00,VWS V14.01,2013-08-12 14:19:00,
2013-08-12 09:24:00,84.5,76.9,30.02,WSW,237,0.0,6.0,78,0.00,,,0.00,475.00,VWS V14.01,2013-08-12 14:24:00,
2013-08-12 09:29:00,84.7,77.1,30.02,WSW,238,0.0,7.0,78,0.00,,,0.00,367.00,VWS V14.01,2013-08-12 14:29:00,
2013-08-12 09:34:00,85.0,77.0,30.02,SW,224,0.0,5.0,77,0.00,,,0.00,568.00,VWS V14.01,2013-08-12 14:34:00,
2013-08-12 09:39:00,85.4,77.4,30.02,West,263,1.0,5.0,77,0.00,,,0.00,496.00,VWS V14.01,2013-08-12 14:39:00,
2013-08-12 09:44:00,85.9,77.5,30.02,West,267,0.0,5.0,76,0.00,,,0.00,615.00,VWS V14.01,2013-08-12 14:44:00,
2013-08-12 09:49:00,86.3,77.4,30.02,South,182,0.0,6.0,75,0.00,,,0.00,605.00,VWS V14.01,2013-08-12 14:49:00,
2013-08-12 09:54:00,86.1,77.2,30.02,SSW,196,0.0,7.0,75,0.00,,,0.00,399.00,VWS V14.01,2013-08-12 14:54:00,
2013-08-12 09:59:00,85.9,77.1,30.02,South,189,0.0,8.0,75,0.00,,,0.00,387.00,VWS V14.01,2013-08-12 14:59:00,
2013-08-12 10:04:00,86.6,78.1,30.02,SW,236,0.0,3.0,76,0.00,,,0.00,707.00,VWS V14.01,2013-08-12 15:04:00,
2013-08-12 10:09:00,87.0,77.7,30.02,WSW,240,6.0,8.0,74,0.00,,,0.00,383.00,VWS V14.01,2013-08-12 15:09:00,
2013-08-12 10:14:00,86.4,77.5,30.02,SW,230,3.0,7.0,75,0.00,,,0.00,373.00,VWS V14.01,2013-08-12 15:14:00,
2013-08-12 10:19:00,86.1,77.2,30.02,South,186,0.0,7.0,75,0.00,,,0.00,459.00,VWS V14.01,2013-08-12 15:19:00,
2013-08-12 10:24:00,86.5,77.6,30.01,SW,221,1.0,6.0,75,0.00,,,0.00,380.00,VWS V14.01,2013-08-12 15:24:00,
2013-08-12 10:29:00,86.4,77.5,30.02,SSW,198,6.0,6.0,75,0.00,,,0.00,427.00,VWS V14.01,2013-08-12 15:29:00,
2013-08-12 10:34:00,86.1,77.7,30.02,West,260,1.0,7.0,76,0.00,,,0.00,417.00,VWS V14.01,2013-08-12 15:34:00,
2013-08-12 10:39:00,87.0,78.5,30.02,SW,223,1.0,7.0,76,0.00,,,0.00,513.00,VWS V14.01,2013-08-12 15:39:00,
2013-08-12 10:44:00,87.6,77.9,30.02,West,265,0.0,7.0,73,0.00,,,0.00,508.00,VWS V14.01,2013-08-12 15:44:00,
2013-08-12 10:49:00,88.0,78.3,30.02,West,264,1.0,7.0,73,0.00,,,0.00,933.00,VWS V14.01,2013-08-12 15:49:00,
2013-08-12 10:54:00,88.7,78.5,30.02,South,184,0.0,6.0,72,0.00,,,0.00,476.00,VWS V14.01,2013-08-12 15:54:00,
2013-08-12 10:59:00,89.3,79.5,30.02,West,281,3.0,6.0,73,0.00,,,0.00,940.00,VWS V14.01,2013-08-12 15:59:00,
2013-08-12 11:04:00,89.7,78.6,30.02,WSW,246,0.0,6.0,70,0.00,,,0.00,940.00,VWS V14.01,2013-08-12 16:04:00,
2013-08-12 11:09:00,90.5,78.9,30.02,West,275,0.0,6.0,69,0.00,,,0.00,624.00,VWS V14.01,2013-08-12 16:09:00,
2013-08-12 11:14:00,90.0,78.5,30.02,SW,214,2.0,9.0,69,0.00,,,0.00,512.00,VWS V14.01,2013-08-12 16:14:00,
2013-08-12 11:19:00,89.1,78.0,30.02,WSW,243,0.0,9.0,70,0.00,,,0.00,550.00,VWS V14.01,2013-08-12 16:19:00,
2013-08-12 11:24:00,89.0,78.8,30.01,South,182,5.0,9.0,72,0.00,,,0.00,891.00,VWS V14.01,2013-08-12 16:24:00,
2013-08-12 11:29:00,88.4,78.2,30.01,SSW,202,0.0,9.0,72,0.00,,,0.00,891.00,VWS V14.01,2013-08-12 16:29:00,
2013-08-12 11:34:00,88.3,78.6,30.01,West,277,6.0,8.0,73,0.00,,,0.00,983.00,VWS V14.01,2013-08-12 16:34:00,
2013-08-12 11:39:00,89.5,78.4,30.01,SSW,206,4.0,8.0,70,0.00,,,0.00,1048.00,VWS V14.01,2013-08-12 16:39:00,
2013-08-12 11:44:00,89.4,77.9,30.01,South,180,4.0,8.0,69,0.00,,,0.00,1002.00,VWS V14.01,2013-08-12 16:44:00,
2013-08-12 11:49:00,89.5,78.4,30.01,SW,217,0.0,8.0,70,0.00,,,0.00,1002.00,VWS V14.01,2013-08-12 16:49:00,
2013-08-12 11:54:00,90.2,79.1,30.01,SW,219,6.0,9.0,70,0.00,,,0.00,677.00,VWS V14.01,2013-08-12 16:54:00,
2013-08-12 11:59:00,90.2,79.1,30.00,SSW,199,0.0,9.0,70,0.00,,,0.00,1007.00,VWS V14.01,2013-08-12 16:59:00,
2013-08-12 12:04:00,91.7,79.2,30.00,West,281,0.0,8.0,67,0.00,,,0.00,408.00,VWS V14.01,2013-08-12 17:04:00,
2013-08-12 12:10:00,91.7,78.7,30.00,South,169,4.0,8.0,66,0.00,,,0.00,241.00,VWS V14.01,2013-08-12 17:10:00,
2013-08-12 12:15:00,91.4,79.4,30.00,WSW,242,1.0,3.0,68,0.00,,,0.00,1020.00,VWS V14.01,2013-08-12 17:15:00,
2013-08-12 12:20:00,91.8,79.3,30.00,West,259,4.0,6.0,67,0.00,,,0.00,983.00,VWS V14.01,2013-08-12 17:20:00,
2013-08-12 12:25:00,91.4,78.0,30.00,SSW,209,6.0,7.0,65,0.00,,,0.00,1035.00,VWS V14.01,2013-08-12 17:25:00,
2013-08-12 12:30:00,91.5,78.5,30.00,WSW,242,0.0,7.0,66,0.00,,,0.00,1067.00,VWS V14.01,2013-08-12 17:30:00,
2013-08-12 12:35:00,92.2,79.2,29.99,WSW,254,0.0,3.0,66,0.00,,,0.00,1034.00,VWS V14.01,2013-08-12 17:35:00,
2013-08-12 12:40:00,92.9,78.9,29.99,WSW,245,3.0,8.0,64,0.00,,,0.00,271.00,VWS V14.01,2013-08-12 17:40:00,
2013-08-12 12:45:00,92.4,79.4,29.99,WNW,294,0.0,6.0,66,0.00,,,0.00,1042.00,VWS V14.01,2013-08-12 17:45:00,
2013-08-12 12:50:00,92.6,78.7,29.98,West,268,1.0,8.0,64,0.00,,,0.00,461.00,VWS V14.01,2013-08-12 17:50:00,
2013-08-12 12:55:00,92.7,78.7,29.98,SW,225,4.0,5.0,64,0.00,,,0.00,313.00,VWS V14.01,2013-08-12 17:55:00,
2013-08-12 13:00:00,92.5,78.6,29.98,WSW,257,4.0,8.0,64,0.00,,,0.00,1025.00,VWS V14.01,2013-08-12 18:00:00,
2013-08-12 13:05:00,92.4,78.9,29.97,WSW,240,0.0,7.0,65,0.00,,,0.00,1058.00,VWS V14.01,2013-08-12 18:05:00,
2013-08-12 13:10:00,92.9,78.4,29.97,WSW,241,2.0,7.0,63,0.00,,,0.00,341.00,VWS V14.01,2013-08-12 18:10:00,
2013-08-12 13:15:00,92.2,78.3,29.97,West,261,2.0,9.0,64,0.00,,,0.00,1009.00,VWS V14.01,2013-08-12 18:15:00,
2013-08-12 13:20:00,92.0,78.1,29.96,WNW,291,6.0,11.0,64,0.00,,,0.00,1028.00,VWS V14.01,2013-08-12 18:20:00,
2013-08-12 13:25:00,92.3,78.4,29.96,West,264,4.0,9.0,64,0.00,,,0.00,947.00,VWS V14.01,2013-08-12 18:25:00,
2013-08-12 13:30:00,92.4,79.4,29.95,West,271,3.0,9.0,66,0.00,,,0.00,1041.00,VWS V14.01,2013-08-12 18:30:00,
2013-08-12 13:35:00,92.8,78.4,29.95,West,259,0.0,10.0,63,0.00,,,0.00,1049.00,VWS V14.01,2013-08-12 18:35:00,
2013-08-12 13:40:00,92.7,78.3,29.95,SSW,199,1.0,10.0,63,0.00,,,0.00,942.00,VWS V14.01,2013-08-12 18:40:00,
2013-08-12 13:45:00,92.7,78.3,29.94,SW,228,3.0,12.0,63,0.00,,,0.00,1058.00,VWS V14.01,2013-08-12 18:45:00,
2013-08-12 13:50:00,93.1,78.2,29.94,South,171,3.0,12.0,62,0.00,,,0.00,1032.00,VWS V14.01,2013-08-12 18:50:00,
2013-08-12 13:55:00,93.7,79.7,29.94,South,185,4.0,7.0,64,0.00,,,0.00,1025.00,VWS V14.01,2013-08-12 18:55:00,
2013-08-12 14:00:00,93.9,78.9,29.94,West,260,5.0,5.0,62,0.00,,,0.00,1051.00,VWS V14.01,2013-08-12 19:00:00,
2013-08-12 14:05:00,93.8,78.8,29.93,SW,221,6.0,9.0,62,0.00,,,0.00,1025.00,VWS V14.01,2013-08-12 19:05:00,
2013-08-12 14:10:00,94.5,79.0,29.93,West,281,1.0,4.0,61,0.00,,,0.00,963.00,VWS V14.01,2013-08-12 19:10:00,
2013-08-12 14:15:00,94.0,78.0,29.93,WSW,250,0.0,7.0,60,0.00,,,0.00,983.00,VWS V14.01,2013-08-12 19:15:00,
2013-08-12 14:20:00,93.9,78.4,29.93,WSW,246,3.0,3.0,61,0.00,,,0.00,970.00,VWS V14.01,2013-08-12 19:20:00,
2013-08-12 14:25:00,93.3,78.3,29.93,SW,222,6.0,13.0,62,0.00,,,0.00,951.00,VWS V14.01,2013-08-12 19:25:00,
2013-08-12 14:30:00,93.0,78.1,29.93,West,261,3.0,5.0,62,0.00,,,0.00,881.00,VWS V14.01,2013-08-12 19:30:00,
2013-08-12 14:35:00,93.4,78.9,29.93,WSW,250,1.0,7.0,63,0.00,,,0.00,914.00,VWS V14.01,2013-08-12 19:35:00,
2013-08-12 14:40:00,93.1,77.7,29.93,WSW,244,6.0,8.0,61,0.00,,,0.00,895.00,VWS V14.01,2013-08-12 19:40:00,
2013-08-12 14:45:00,92.8,78.4,29.93,SW,217,2.0,8.0,63,0.00,,,0.00,218.00,VWS V14.01,2013-08-12 19:45:00,
2013-08-12 14:50:00,92.9,77.5,29.93,SW,216,4.0,4.0,61,0.00,,,0.00,824.00,VWS V14.01,2013-08-12 19:50:00,
2013-08-12 14:55:00,93.6,78.1,29.92,WSW,242,0.0,8.0,61,0.00,,,0.00,898.00,VWS V14.01,2013-08-12 19:55:00,
2013-08-12 15:00:00,93.9,77.9,29.92,WSW,254,6.0,7.0,60,0.00,,,0.00,889.00,VWS V14.01,2013-08-12 20:00:00,
2013-08-12 15:05:00,94.3,77.3,29.92,West,275,5.0,8.0,58,0.00,,,0.00,879.00,VWS V14.01,2013-08-12 20:05:00,
2013-08-12 15:10:00,94.1,78.1,29.92,WSW,257,0.0,1.0,60,0.00,,,0.00,865.00,VWS V14.01,2013-08-12 20:10:00,
2013-08-12 15:15:00,94.4,77.9,29.92,WNW,300,5.0,10.0,59,0.00,,,0.00,860.00,VWS V14.01,2013-08-12 20:15:00,
2013-08-12 15:20:00,94.5,77.4,29.92,WSW,253,1.0,3.0,58,0.00,,,0.00,225.00,VWS V14.01,2013-08-12 20:20:00,
2013-08-12 15:25:00,93.8,77.8,29.91,WSW,244,5.0,9.0,60,0.00,,,0.00,882.00,VWS V14.01,2013-08-12 20:25:00,
2013-08-12 15:30:00,93.8,78.3,29.91,West,271,1.0,3.0,61,0.00,,,0.00,849.00,VWS V14.01,2013-08-12 20:30:00,
2013-08-12 15:35:00,93.7,78.2,29.91,West,265,1.0,10.0,61,0.00,,,0.00,271.00,VWS V14.01,2013-08-12 20:35:00,
2013-08-12 15:40:00,93.3,77.8,29.90,West,275,2.0,2.0,61,0.00,,,0.00,907.00,VWS V14.01,2013-08-12 20:40:00,
2013-08-12 15:45:00,93.6,78.1,29.91,SW,225,2.0,7.0,61,0.00,,,0.00,842.00,VWS V14.01,2013-08-12 20:45:00,
2013-08-12 15:50:00,93.2,77.8,29.91,West,280,1.0,1.0,61,0.00,,,0.00,603.00,VWS V14.01,2013-08-12 20:50:00,
2013-08-12 15:55:00,93.2,77.3,29.90,SSW,213,1.0,8.0,60,0.00,,,0.00,659.00,VWS V14.01,2013-08-12 20:55:00,
2013-08-12 16:00:00,92.9,77.5,29.90,WSW,238,4.0,7.0,61,0.00,,,0.00,517.00,VWS V14.01,2013-08-12 21:00:00,
2013-08-12 16:05:00,93.0,77.6,29.91,SSW,213,4.0,7.0,61,0.00,,,0.00,487.00,VWS V14.01,2013-08-12 21:05:00,
2013-08-12 16:10:00,92.6,77.2,29.91,SW,226,1.0,9.0,61,0.00,,,0.00,309.00,VWS V14.01,2013-08-12 21:10:00,
2013-08-12 16:15:00,92.0,77.6,29.91,WSW,240,3.0,9.0,63,0.00,,,0.00,248.00,VWS V14.01,2013-08-12 21:15:00,
2013-08-12 16:20:00,91.6,77.2,29.91,WSW,244,2.0,4.0,63,0.00,,,0.00,274.00,VWS V14.01,2013-08-12 21:20:00,
2013-08-12 16:25:00,91.4,77.5,29.91,West,266,5.0,8.0,64,0.00,,,0.00,285.00,VWS V14.01,2013-08-12 21:25:00,
2013-08-12 16:30:00,91.1,77.2,29.91,WSW,241,2.0,4.0,64,0.00,,,0.00,279.00,VWS V14.01,2013-08-12 21:30:00,
2013-08-12 16:35:00,91.1,77.7,29.91,SW,230,0.0,4.0,65,0.00,,,0.00,276.00,VWS V14.01,2013-08-12 21:35:00,
2013-08-12 16:40:00,91.4,78.4,29.91,West,261,1.0,1.0,66,0.00,,,0.00,279.00,VWS V14.01,2013-08-12 21:40:00,
2013-08-12 16:45:00,91.7,78.3,29.91,WSW,243,2.0,5.0,65,0.00,,,0.00,308.00,VWS V14.01,2013-08-12 21:45:00,
2013-08-12 16:50:00,91.5,78.1,29.90,WSW,240,2.0,3.0,65,0.00,,,0.00,262.00,VWS V14.01,2013-08-12 21:50:00,
2013-08-12 16:55:00,91.4,78.0,29.90,West,271,1.0,7.0,65,0.00,,,0.00,236.00,VWS V14.01,2013-08-12 21:55:00,
2013-08-12 17:00:00,91.2,77.8,29.90,WSW,241,0.0,2.0,65,0.00,,,0.00,221.00,VWS V14.01,2013-08-12 22:00:00,
2013-08-12 17:05:00,91.1,78.2,29.90,WSW,240,0.0,4.0,66,0.00,,,0.00,207.00,VWS V14.01,2013-08-12 22:05:00,
2013-08-12 17:10:00,90.9,78.0,29.90,WSW,246,0.0,3.0,66,0.00,,,0.00,193.00,VWS V14.01,2013-08-12 22:10:00,
2013-08-12 17:15:00,90.7,78.2,29.90,WSW,252,0.0,3.0,67,0.00,,,0.00,181.00,VWS V14.01,2013-08-12 22:15:00,
2013-08-12 17:20:00,90.5,77.6,29.90,WSW,257,0.0,2.0,66,0.00,,,0.00,171.00,VWS V14.01,2013-08-12 22:20:00,
2013-08-12 17:25:00,90.4,77.9,29.90,WSW,256,3.0,6.0,67,0.00,,,0.00,153.00,VWS V14.01,2013-08-12 22:25:00,
2013-08-12 17:30:00,90.2,77.8,29.90,West,265,0.0,3.0,67,0.00,,,0.00,135.00,VWS V14.01,2013-08-12 22:30:00,
2013-08-12 17:35:00,89.9,77.5,29.90,West,260,0.0,8.0,67,0.00,,,0.00,118.00,VWS V14.01,2013-08-12 22:35:00,
2013-08-12 17:40:00,89.6,77.6,29.90,West,259,0.0,4.0,68,0.00,,,0.00,98.00,VWS V14.01,2013-08-12 22:40:00,
2013-08-12 17:45:00,89.4,77.4,29.90,WNW,289,0.0,6.0,68,0.00,,,0.00,79.00,VWS V14.01,2013-08-12 22:45:00,
2013-08-12 17:50:00,89.2,77.3,29.89,WSW,256,1.0,2.0,68,0.00,,,0.00,62.00,VWS V14.01,2013-08-12 22:50:00,
2013-08-12 17:55:00,89.0,77.1,29.90,WSW,248,0.0,5.0,68,0.00,,,0.00,47.00,VWS V14.01,2013-08-12 22:55:00,
2013-08-12 18:00:00,88.8,77.3,29.90,WSW,252,0.0,3.0,69,0.00,,,0.00,32.00,VWS V14.01,2013-08-12 23:00:00,
2013-08-12 18:05:00,88.6,77.1,29.90,WSW,250,0.0,3.0,69,0.00,,,0.00,28.00,VWS V14.01,2013-08-12 23:05:00,
2013-08-12 18:10:00,88.3,77.3,29.89,WSW,249,0.0,0.0,70,0.00,,,0.00,28.00,VWS V14.01,2013-08-12 23:10:00,
2013-08-12 18:15:00,88.1,77.1,29.89,WSW,257,0.0,5.0,70,0.00,,,0.00,28.00,VWS V14.01,2013-08-12 23:15:00,
2013-08-12 18:20:00,87.9,76.9,29.89,West,267,3.0,3.0,70,0.00,,,0.00,19.00,VWS V14.01,2013-08-12 23:20:00,
2013-08-12 18:25:00,87.7,77.1,29.91,WNW,296,13.0,13.0,71,0.00,,,0.00,0.00,VWS V14.01,2013-08-12 23:25:00,
2013-08-12 18:30:00,85.1,72.0,29.92,NW,309,10.0,20.0,65,0.00,,,0.00,0.00,VWS V14.01,2013-08-12 23:30:00,
2013-08-12 18:35:00,83.5,71.8,29.92,West,271,2.0,20.0,68,0.00,,,0.00,0.00,VWS V14.01,2013-08-12 23:35:00,
2013-08-12 18:40:00,82.7,71.5,29.92,NW,306,5.0,10.0,69,0.00,,,0.00,9.00,VWS V14.01,2013-08-12 23:40:00,
2013-08-12 18:45:00,81.6,71.7,29.91,North,360,3.0,12.0,72,0.03,,,0.03,11.00,VWS V14.01,2013-08-12 23:45:00,
2013-08-12 18:50:00,80.0,71.8,29.91,WNW,293,0.0,1.0,76,0.03,,,0.03,12.00,VWS V14.01,2013-08-12 23:50:00,
2013-08-12 18:55:00,79.1,72.0,29.90,WNW,292,0.0,3.0,79,0.03,,,0.03,11.00,VWS V14.01,2013-08-12 23:55:00,
2013-08-12 19:00:00,78.5,72.2,29.91,WNW,293,5.0,8.0,81,0.03,,,0.03,7.00,VWS V14.01,2013-08-13 00:00:00,
2013-08-12 19:05:00,78.1,72.2,29.91,WNW,294,5.0,8.0,82,0.03,,,0.03,7.00,VWS V14.01,2013-08-13 00:05:00,
2013-08-12 19:10:00,77.7,72.1,29.91,WNW,284,5.0,8.0,83,0.03,,,0.03,5.00,VWS V14.01,2013-08-13 00:10:00,
2013-08-12 19:15:00,77.4,71.8,29.91,WNW,287,1.0,10.0,83,0.03,,,0.03,0.00,VWS V14.01,2013-08-13 00:15:00,
2013-08-12 19:20:00,77.3,72.1,29.92,WNW,285,0.0,0.0,84,0.03,,,0.03,0.00,VWS V14.01,2013-08-13 00:20:00,
2013-08-12 19:25:00,77.1,71.9,29.91,WNW,286,0.0,2.0,84,0.03,,,0.03,0.00,VWS V14.01,2013-08-13 00:25:00,
2013-08-12 19:30:00,77.0,72.2,29.91,WNW,285,0.0,1.0,85,0.03,,,0.03,0.00,VWS V14.01,2013-08-13 00:30:00,
2013-08-12 19:35:00,77.0,72.5,29.92,WSW,254,4.0,4.0,86,0.03,,,0.03,0.00,VWS V14.01,2013-08-13 00:35:00,
2013-08-12 19:40:00,76.9,72.7,29.92,West,262,0.0,1.0,87,0.04,,,0.04,0.00,VWS V14.01,2013-08-13 00:40:00,
2013-08-12 19:45:00,76.8,72.6,29.93,West,262,2.0,2.0,87,0.05,,,0.05,0.00,VWS V14.01,2013-08-13 00:45:00,
2013-08-12 19:50:00,76.6,72.8,29.93,West,259,0.0,0.0,88,0.02,,,0.05,0.00,VWS V14.01,2013-08-13 00:50:00,
2013-08-12 19:55:00,76.4,72.6,29.93,WSW,254,2.0,2.0,88,0.02,,,0.05,0.00,VWS V14.01,2013-08-13 00:55:00,
2013-08-12 20:00:00,76.3,72.5,29.93,SSW,200,0.0,0.0,88,0.02,,,0.05,0.00,VWS V14.01,2013-08-13 01:00:00,
2013-08-12 20:05:00,76.3,72.8,29.94,SSW,200,0.0,2.0,89,0.02,,,0.05,0.00,VWS V14.01,2013-08-13 01:05:00,
2013-08-12 20:10:00,76.3,72.8,29.95,SSW,206,0.0,0.0,89,0.02,,,0.05,0.00,VWS V14.01,2013-08-13 01:10:00,
2013-08-12 20:15:00,76.1,72.3,29.95,SSW,208,2.0,4.0,88,0.03,,,0.06,0.00,VWS V14.01,2013-08-13 01:15:00,
2013-08-12 20:20:00,76.0,72.2,29.95,SW,231,0.0,1.0,88,0.04,,,0.07,0.00,VWS V14.01,2013-08-13 01:20:00,
2013-08-12 20:25:00,75.8,72.0,29.94,SW,233,0.0,1.0,88,0.05,,,0.08,0.00,VWS V14.01,2013-08-13 01:25:00,
2013-08-12 20:30:00,75.7,71.9,29.94,SW,234,0.0,0.0,88,0.06,,,0.09,0.00,VWS V14.01,2013-08-13 01:30:00,
2013-08-12 20:35:00,75.6,71.8,29.94,SW,234,0.0,1.0,88,0.07,,,0.10,0.00,VWS V14.01,2013-08-13 01:35:00,
2013-08-12 20:40:00,75.6,72.1,29.95,SW,234,0.0,1.0,89,0.06,,,0.10,0.00,VWS V14.01,2013-08-13 01:40:00,
2013-08-12 20:45:00,75.3,71.5,29.94,WSW,238,0.0,3.0,88,0.07,,,0.11,0.00,VWS V14.01,2013-08-13 01:45:00,
2013-08-12 20:50:00,75.0,71.2,29.95,WSW,244,0.0,1.0,88,0.07,,,0.12,0.00,VWS V14.01,2013-08-13 01:50:00,
2013-08-12 20:55:00,74.7,70.9,29.95,WSW,244,0.0,2.0,88,0.07,,,0.12,0.00,VWS V14.01,2013-08-13 01:55:00,
2013-08-12 21:00:00,74.6,71.2,29.96,WSW,244,0.0,0.0,89,0.07,,,0.12,0.00,VWS V14.01,2013-08-13 02:00:00,
2013-08-12 21:05:00,74.4,70.9,29.95,WSW,244,0.0,2.0,89,0.08,,,0.13,0.00,VWS V14.01,2013-08-13 02:05:00,
2013-08-12 21:10:00,74.3,70.8,29.94,WSW,244,0.0,0.0,89,0.08,,,0.13,0.00,VWS V14.01,2013-08-13 02:10:00,
2013-08-12 21:15:00,74.2,70.8,29.95,WSW,243,0.0,3.0,89,0.08,,,0.13,0.00,VWS V14.01,2013-08-13 02:15:00,
2013-08-12 21:20:00,74.1,71.0,29.95,WSW,242,0.0,0.0,90,0.06,,,0.13,0.00,VWS V14.01,2013-08-13 02:20:00,
2013-08-12 21:25:00,74.0,70.9,29.95,WSW,243,0.0,1.0,90,0.06,,,0.13,0.00,VWS V14.01,2013-08-13 02:25:00,
2013-08-12 21:30:00,74.0,70.9,29.95,WSW,243,0.0,0.0,90,0.04,,,0.13,0.00,VWS V14.01,2013-08-13 02:30:00,
2013-08-12 21:35:00,73.9,70.8,29.94,WSW,243,0.0,0.0,90,0.04,,,0.13,0.00,VWS V14.01,2013-08-13 02:35:00,
2013-08-12 21:40:00,73.9,70.8,29.94,WSW,243,0.0,0.0,90,0.03,,,0.13,0.00,VWS V14.01,2013-08-13 02:40:00,
2013-08-12 21:46:00,73.8,70.7,29.94,WSW,243,0.0,0.0,90,0.03,,,0.13,0.00,VWS V14.01,2013-08-13 02:46:00,
2013-08-12 21:51:00,73.7,70.9,29.94,WSW,242,0.0,0.0,91,0.01,,,0.13,0.00,VWS V14.01,2013-08-13 02:51:00,
2013-08-12 21:56:00,73.7,70.9,29.94,WSW,243,0.0,0.0,91,0.01,,,0.13,0.00,VWS V14.01,2013-08-13 02:56:00,
2013-08-12 22:01:00,73.6,70.8,29.94,WSW,243,0.0,0.0,91,0.01,,,0.13,0.00,VWS V14.01,2013-08-13 03:01:00,
2013-08-12 22:06:00,73.5,70.7,29.93,WSW,242,0.0,0.0,91,0.01,,,0.13,0.00,VWS V14.01,2013-08-13 03:06:00,
2013-08-12 22:11:00,73.5,70.7,29.94,WSW,242,0.0,1.0,91,0.00,,,0.13,0.00,VWS V14.01,2013-08-13 03:11:00,
2013-08-12 22:16:00,73.5,71.0,29.94,WSW,242,0.0,1.0,92,0.00,,,0.13,0.00,VWS V14.01,2013-08-13 03:16:00,
2013-08-12 22:21:00,73.4,70.6,29.94,WSW,243,0.0,0.0,91,0.00,,,0.13,0.00,VWS V14.01,2013-08-13 03:21:00,
2013-08-12 22:26:00,73.3,70.5,29.95,WSW,243,0.0,1.0,91,0.00,,,0.13,0.00,VWS V14.01,2013-08-13 03:26:00,
2013-08-12 22:31:00,73.3,70.5,29.94,WSW,243,0.0,0.0,91,0.00,,,0.13,0.00,VWS V14.01,2013-08-13 03:31:00,
2013-08-12 22:36:00,73.1,70.3,29.94,WSW,243,0.0,0.0,91,0.00,,,0.13,0.00,VWS V14.01,2013-08-13 03:36:00,
2013-08-12 22:41:00,73.1,70.6,29.95,WSW,242,0.0,0.0,92,0.00,,,0.13,0.00,VWS V14.01,2013-08-13 03:41:00,
2013-08-12 22:46:00,73.1,70.6,29.95,WSW,243,0.0,1.0,92,0.00,,,0.13,0.00,VWS V14.01,2013-08-13 03:46:00,
2013-08-12 22:52:00,73.1,70.6,29.95,WSW,243,0.0,0.0,92,0.00,,,0.13,0.00,VWS V14.01,2013-08-13 03:52:00,
2013-08-12 22:57:00,73.2,70.7,29.95,WSW,242,0.0,1.0,92,0.00,,,0.13,0.00,VWS V14.01,2013-08-13 03:57:00,
2013-08-12 23:01:00,73.3,70.8,29.95,WSW,242,0.0,0.0,92,0.00,,,0.13,0.00,VWS V14.01,2013-08-13 04:01:00,
2013-08-12 23:02:00,73.3,70.8,29.95,WSW,243,0.0,0.0,92,0.00,,,0.13,0.00,VWS V14.01,2013-08-13 04:02:00,
2013-08-12 23:07:00,73.3,70.8,29.95,WSW,243,0.0,0.0,92,0.00,,,0.13,0.00,VWS V14.01,2013-08-13 04:07:00,
2013-08-12 23:12:00,73.3,70.8,29.94,WSW,243,0.0,0.0,92,0.00,,,0.13,0.00,VWS V14.01,2013-08-13 04:12:00,
2013-08-12 23:17:00,73.3,71.2,29.94,WSW,242,0.0,0.0,93,0.00,,,0.13,0.00,VWS V14.01,2013-08-13 04:17:00,
2013-08-12 23:22:00,73.2,71.1,29.94,WSW,243,0.0,0.0,93,0.00,,,0.13,0.00,VWS V14.01,2013-08-13 04:22:00,
2013-08-12 23:27:00,73.1,71.0,29.94,WSW,243,0.0,1.0,93,0.00,,,0.13,0.00,VWS V14.01,2013-08-13 04:27:00,
2013-08-12 23:32:00,73.0,70.9,29.94,WSW,242,0.0,1.0,93,0.00,,,0.13,0.00,VWS V14.01,2013-08-13 04:32:00,
2013-08-12 23:37:00,72.8,70.7,29.94,WSW,242,0.0,1.0,93,0.00,,,0.13,0.00,VWS V14.01,2013-08-13 04:37:00,
2013-08-12 23:42:00,72.7,70.6,29.93,WSW,242,0.0,1.0,93,0.00,,,0.13,0.00,VWS V14.01,2013-08-13 04:42:00,
2013-08-12 23:47:00,72.6,70.5,29.93,WSW,243,0.0,1.0,93,0.00,,,0.13,0.00,VWS V14.01,2013-08-13 04:47:00,
2013-08-12 23:52:00,72.5,70.4,29.93,WSW,242,0.0,1.0,93,0.00,,,0.13,0.00,VWS V14.01,2013-08-13 04:52:00,
2013-08-12 23:57:00,72.5,70.4,29.93,WSW,242,0.0,4.0,93,0.00,,,0.13,0.00,VWS V14.01,2013-08-13 04:57:00,